This is the latest recevied weather packets stored in our database for station/object N8AMF. If no packets are shown the sender has not sent any weather packets the latest 10 day(s).
| Time | Temp. | Humidity | Pressure | Rain* | Wind** | Luminosity | Snow |
|---|---|---|---|---|---|---|---|
| 1778013941 | 11.67° C | 96% | 1007.1 hPa | 3.05 mm | - | 52 W/m² | - |
| 1778013638 | 11.67° C | 96% | 1007.1 hPa | 6.1 mm | - | 43 W/m² | - |
| 1778013335 | 12.22° C | 96% | 1007.2 hPa | 6.1 mm | - | 27 W/m² | - |
| 1778013032 | 13.33° C | 95% | 1007 hPa | 4.83 mm | - | 20 W/m² | - |
| 1778012728 | 13.89° C | 96% | 1006.8 hPa | 5.33 mm | - | 34 W/m² | - |
| 1778012424 | 13.89° C | 96% | 1006.6 hPa | 2.29 mm | - | 77 W/m² | - |
| 1778012121 | 13.89° C | 96% | 1006.8 hPa | 2.29 mm | - | 35 W/m² | - |
| 1778011819 | 13.89° C | 95% | 1006.8 hPa | 2.29 mm | - | 64 W/m² | - |
| 1778011517 | 13.89° C | 95% | 1006.9 hPa | 1.27 mm | - | 84 W/m² | - |
| 1778011213 | 13.89° C | 95% | 1006.9 hPa | 2.29 mm | - | 87 W/m² | - |
| 1778010909 | 14.44° C | 95% | 1006.9 hPa | 2.29 mm | - | 118 W/m² | - |
| 1778010607 | 14.44° C | 95% | 1006.9 hPa | 3.56 mm | - | 112 W/m² | - |
| 1778010304 | 13.89° C | 94% | 1006.9 hPa | 4.32 mm | - | 107 W/m² | - |
| 1778010004 | 14.44° C | 94% | 1007 hPa | 6.6 mm | - | 65 W/m² | - |
| 1778009702 | 14.44° C | 94% | 1007 hPa | 7.87 mm | - | 88 W/m² | - |
| 1778009399 | 14.44° C | 93% | 1006.8 hPa | 7.87 mm | - | 76 W/m² | - |
| 1778009098 | 14.44° C | 93% | 1007 hPa | 9.65 mm | - | 48 W/m² | - |
| 1778008794 | 14.44° C | 93% | 1007.1 hPa | 8.38 mm | - | 53 W/m² | - |
| 1778008493 | 14.44° C | 92% | 1007 hPa | 6.6 mm | - | 50 W/m² | - |
| 1778008190 | 14.44° C | 91% | 1006.8 hPa | 4.83 mm | - | 60 W/m² | - |
| 1778007884 | 14.44° C | 91% | 1007 hPa | 2.29 mm | - | 45 W/m² | - |
| 1778007580 | 15° C | 90% | 1006.9 hPa | 1.27 mm | - | 73 W/m² | - |
| 1778007278 | 15° C | 89% | 1007 hPa | 2.29 mm | - | 68 W/m² | - |
| 1778006974 | 15° C | 88% | 1006.9 hPa | 3.05 mm | - | 96 W/m² | - |
| 1778006671 | 15° C | 86% | 1007 hPa | 3.05 mm | - | 138 W/m² | - |
* Rain latest hour (hover to see other rain measurements)
** Current wind speed in m/s (hover to see current wind gust speed)